W6FL Weather Reports


time (UTC)temp
C
wind
direction
speed
KPH
gust
KPH
rain 1hr
cm
rain 24hr
cm
rain mn
cm
humidity
%
barometer
mb
20260507035356 17 285 11.3 16.1 0.00 0.00 0.00 69 1018.3
20260507034846 17 290 12.9 16.1 0.00 0.00 0.00 69 1018.3
20260507034342 17 284 14.5 16.1 0.00 0.00 0.00 68 1018.2
20260507033855 17 288 12.9 16.1 0.00 0.00 0.00 67 1018.1
20260507033401 17 281 12.9 16.1 0.00 0.00 0.00 67 1018.0
20260507032850 17 286 11.3 14.5 0.00 0.00 0.00 66 1018.1
20260507032355 17 288 11.3 14.5 0.00 0.00 0.00 66 1018.0
20260507031904 17 295 12.9 14.5 0.00 0.00 0.00 66 1018.0
20260507031356 18 293 12.9 16.1 0.00 0.00 0.00 65 1017.9
20260507030843 18 292 12.9 17.7 0.00 0.00 0.00 65 1017.9
20260507030340 18 296 14.5 17.7 0.00 0.00 0.00 64 1018.0
20260507025915 18 283 14.5 19.3 0.00 0.00 0.00 64 1017.7
20260507025423 18 298 14.5 19.3 0.00 0.00 0.00 63 1017.7
20260507024846 18 292 16.1 20.9 0.00 0.00 0.00 63 1017.6
20260507024347 18 285 17.7 22.5 0.00 0.00 0.00 62 1017.5
20260507023901 18 292 17.7 22.5 0.00 0.00 0.00 61 1017.5
20260507023404 19 315 14.5 17.7 0.00 0.00 0.00 60 1017.4
20260507022902 19 295 14.5 20.9 0.00 0.00 0.00 60 1017.4
20260507022354 19 290 16.1 20.9 0.00 0.00 0.00 60 1017.4
20260507021907 19 296 17.7 20.9 0.00 0.00 0.00 59 1017.3
20260507021358 19 286 17.7 24.1 0.00 0.00 0.00 59 1017.2
20260507020855 20 292 19.3 24.1 0.00 0.00 0.00 59 1017.2
20260507020357 20 293 19.3 22.5 0.00 0.00 0.00 59 1017.2
20260507015906 20 304 17.7 24.1 0.00 0.00 0.00 58 1017.1
20260507015403 20 283 19.3 24.1 0.00 0.00 0.00 58 1017.1
20260507014848 20 281 20.9 22.5 0.00 0.00 0.00 57 1017.1
20260507014413 20 283 17.7 24.1 0.00 0.00 0.00 57 1017.1
20260507013839 20 288 19.3 24.1 0.00 0.00 0.00 56 1017.1
20260507013344 20 281 17.7 22.5 0.00 0.00 0.00 56 1017.0
20260507012848 21 316 16.1 22.5 0.00 0.00 0.00 56 1016.9
20260507012349 21 275 19.3 24.1 0.00 0.00 0.00 55 1017.0
20260507011851 21 292 19.3 25.7 0.00 0.00 0.00 55 1016.9
20260507011402 21 273 17.7 25.7 0.00 0.00 0.00 53 1016.9
20260507010914 21 280 16.1 24.1 0.00 0.00 0.00 53 1016.9
20260507010400 21 289 19.3 24.1 0.00 0.00 0.00 53 1016.8
20260507005857 21 273 19.3 27.4 0.00 0.00 0.00 53 1016.8
20260507005349 21 288 20.9 27.4 0.00 0.00 0.00 52 1016.7
20260507004851 21 263 20.9 27.4 0.00 0.00 0.00 52 1016.7
20260507004344 22 283 17.7 27.4 0.00 0.00 0.00 52 1016.7
20260507003850 21 284 11.3 27.4 0.00 0.00 0.00 52 1016.7
20260507003356 21 341 20.9 27.4 0.00 0.00 0.00 52 1016.5
20260507002852 22 263 20.9 29.0 0.00 0.00 0.00 52 1016.6
20260507002352 22 278 24.1 30.6 0.00 0.00 0.00 51 1016.5
20260507001855 22 280 20.9 30.6 0.00 0.00 0.00 51 1016.4
20260507001342 22 276 24.1 30.6 0.00 0.00 0.00 51 1016.4
20260507000844 22 284 17.7 32.2 0.00 0.00 0.00 50 1016.4
20260507000340 22 263 24.1 32.2 0.00 0.00 0.00 50 1016.3
20260506235855 22 287 19.3 27.4 0.00 0.00 0.00 50 1016.3
20260506235409 22 273 22.5 27.4 0.00 0.00 0.00 49 1016.4
20260506234844 22 295 14.5 29.0 0.00 0.00 0.00 49 1016.4
20260506234404 22 309 17.7 29.0 0.00 0.00 0.00 49 1016.5
20260506233909 22 300 12.9 29.0 0.00 0.00 0.00 49 1016.4
20260506233402 22 302 16.1 25.7 0.00 0.00 0.00 49 1016.3
20260506232910 22 304 16.1 30.6 0.00 0.00 0.00 49 1016.4
20260506232345 22 281 20.9 30.6 0.00 0.00 0.00 49 1016.3
20260506231845 22 326 22.5 29.0 0.00 0.00 0.00 48 1016.4
20260506231350 22 290 19.3 30.6 0.00 0.00 0.00 49 1016.3
20260506230842 22 312 16.1 30.6 0.00 0.00 0.00 47 1016.5
20260506230419 22 270 19.3 30.6 0.00 0.00 0.00 47 1016.4
20260506225847 23 281 20.9 30.6 0.00 0.00 0.00 46 1016.5
20260506225356 23 272 12.9 20.9 0.00 0.00 0.00 47 1016.5
20260506224849 22 321 12.9 25.7 0.00 0.00 0.00 47 1016.5
20260506224356 22 304 14.5 25.7 0.00 0.00 0.00 47 1016.6
20260506223840 22 300 16.1 22.5 0.00 0.00 0.00 47 1016.8
20260506223347 22 360 17.7 24.1 0.00 0.00 0.00 47 1016.8
20260506222905 23 302 16.1 24.1 0.00 0.00 0.00 47 1016.8
20260506222354 22 290 11.3 19.3 0.00 0.00 0.00 47 1016.8
20260506221924 22 326 8.0 22.5 0.00 0.00 0.00 47 1016.8
20260506221415 22 298 12.9 22.5 0.00 0.00 0.00 46 1016.9
20260506220857 22 324 9.7 19.3 0.00 0.00 0.00 47 1017.1
20260506220400 22 338 12.9 19.3 0.00 0.00 0.00 46 1017.1
20260506215847 22 296 12.9 19.3 0.00 0.00 0.00 46 1017.1
20260506215419 22 13 9.7 19.3 0.00 0.00 0.00 46 1017.1
20260506214900 21 316 11.3 24.1 0.00 0.00 0.00 48 1017.3
20260506214344 21 346 8.0 24.1 0.00 0.00 0.00 46 1017.4
20260506213847 21 300 12.9 22.5 0.00 0.00 0.00 46 1017.5
20260506213353 22 264 16.1 22.5 0.00 0.00 0.00 46 1017.6
20260506212852 22 305 14.5 22.5 0.00 0.00 0.00 46 1017.7
20260506212348 22 344 9.7 19.3 0.00 0.00 0.00 46 1017.7
20260506211844 21 292 11.3 19.3 0.00 0.00 0.00 46 1017.8
20260506211407 21 294 9.7 19.3 0.00 0.00 0.00 46 1017.8
20260506210846 22 287 11.3 20.9 0.00 0.00 0.00 45 1017.8
20260506210351 22 285 9.7 20.9 0.00 0.00 0.00 46 1017.9
20260506205846 22 255 12.9 19.3 0.00 0.00 0.00 46 1017.8
20260506205341 21 278 9.7 17.7 0.00 0.00 0.00 47 1017.9
20260506204840 21 360 9.7 20.9 0.00 0.00 0.00 47 1017.8
20260506204357 21 298 11.3 20.9 0.00 0.00 0.00 46 1018.0
20260506203839 21 242 11.3 20.9 0.00 0.00 0.00 47 1018.0
20260506203350 21 284 8.0 19.3 0.00 0.00 0.00 48 1018.0
20260506202901 20 298 9.7 19.3 0.00 0.00 0.00 48 1018.0
20260506202343 20 306 4.8 20.9 0.00 0.00 0.00 49 1018.0
20260506201846 20 280 12.9 20.9 0.00 0.00 0.00 50 1018.1
20260506201357 20 360 9.7 19.3 0.00 0.00 0.00 49 1018.2
20260506200854 20 271 6.4 20.9 0.00 0.00 0.00 50 1018.2
20260506200352 20 300 9.7 20.9 0.00 0.00 0.00 51 1018.2
20260506195854 20 283 8.0 20.9 0.00 0.00 0.00 52 1018.4
20260506195419 20 287 12.9 19.3 0.00 0.00 0.00 51 1018.4
20260506194857 20 292 6.4 19.3 0.00 0.00 0.00 52 1018.4
20260506194400 20 288 9.7 17.7 0.00 0.00 0.00 51 1018.5
20260506193902 19 324 9.7 20.9 0.00 0.00 0.00 52 1018.6
20260506193347 19 278 9.7 20.9 0.00 0.00 0.00 52 1018.6
20260506192916 19 268 8.0 19.3 0.00 0.00 0.00 52 1018.7
20260506192344 19 257 12.9 19.3 0.00 0.00 0.00 52 1018.8
20260506191854 19 279 12.9 19.3 0.00 0.00 0.00 53 1019.0
20260506191356 19 277 9.7 16.1 0.00 0.00 0.00 53 1019.1
20260506190909 18 243 12.9 17.7 0.00 0.00 0.00 53 1019.1
20260506190351 19 278 6.4 14.5 0.00 0.00 0.00 54 1019.2
20260506185902 18 325 6.4 19.3 0.00 0.00 0.00 54 1019.2
20260506185407 18 333 9.7 19.3 0.00 0.00 0.00 55 1019.2
20260506184916 18 265 11.3 16.1 0.00 0.00 0.00 54 1019.3
20260506184343 18 284 8.0 12.9 0.00 0.00 0.00 55 1019.3
20260506183900 18 348 4.8 12.9 0.00 0.00 0.00 55 1019.3
20260506183344 18 342 8.0 14.5 0.00 0.00 0.00 55 1019.4
20260506182851 18 344 6.4 14.5 0.00 0.00 0.00 56 1019.4
20260506181841 18 360 4.8 9.7 0.00 0.00 0.00 57 1019.4
20260506181347 17 29 4.8 16.1 0.00 0.00 0.00 57 1019.5
20260506180857 17 313 8.0 16.1 0.00 0.00 0.00 57 1019.5
20260506180359 17 311 6.4 16.1 0.00 0.00 0.00 58 1019.6
20260506175849 17 234 9.7 16.1 0.00 0.00 0.00 59 1019.5
20260506175404 17 302 4.8 16.1 0.00 0.00 0.00 60 1019.5
20260506174844 17 315 8.0 17.7 0.00 0.00 0.00 60 1019.5
20260506174352 17 273 12.9 17.7 0.00 0.00 0.00 60 1019.4
20260506173853 17 292 11.3 16.1 0.00 0.00 0.00 60 1019.4
20260506173356 16 247 4.8 12.9 0.00 0.00 0.00 61 1019.4
20260506172900 16 283 6.4 14.5 0.00 0.00 0.00 60 1019.5
20260506172407 16 308 9.7 14.5 0.00 0.00 0.00 61 1019.4
20260506171858 16 275 9.7 14.5 0.00 0.00 0.00 60 1019.4
20260506171403 17 267 8.0 12.9 0.00 0.00 0.00 61 1019.5
20260506170855 16 321 1.6 4.8 0.00 0.00 0.00 63 1019.5
20260506170359 16 310 1.6 6.4 0.00 0.00 0.00 63 1019.5
20260506165902 16 284 4.8 9.7 0.00 0.00 0.00 64 1019.5
20260506165344 16 38 4.8 14.5 0.00 0.00 0.00 65 1019.4
20260506164900 16 285 4.8 11.3 0.00 0.00 0.00 66 1019.5
20260506164358 15 55 4.8 12.9 0.00 0.00 0.00 66 1019.6
20260506163844 15 349 8.0 12.9 0.00 0.00 0.00 66 1019.6
20260506163346 15 278 1.6 8.0 0.00 0.00 0.00 67 1019.5
20260506162859 15 5 4.8 9.7 0.00 0.00 0.00 67 1019.5
20260506162346 15 5 4.8 9.7 0.00 0.00 0.00 66 1019.5
20260506161845 15 308 6.4 9.7 0.00 0.00 0.00 67 1019.5
20260506161354 15 38 3.2 6.4 0.00 0.00 0.00 68 1019.4
20260506160856 15 274 3.2 8.0 0.00 0.00 0.00 69 1019.4
20260506160343 15 135 6.4 8.0 0.00 0.00 0.00 70 1019.4
20260506155848 14 70 3.2 4.8 0.00 0.00 0.00 70 1019.5
20260506155349 14 30 3.2 4.8 0.00 0.00 0.00 71 1019.4
20260506154853 14 342 3.2 6.4 0.00 0.00 0.00 72 1019.4
20260506154357 13 24 0.0 8.0 0.00 0.00 0.00 73 1019.4
20260506153844 13 360 3.2 8.0 0.00 0.00 0.00 74 1019.4
20260506153342 13 53 3.2 9.7 0.00 0.00 0.00 76 1019.4
20260506152848 13 144 3.2 9.7 0.00 0.00 0.00 78 1019.3